Regional Weather Roundup
Issued by NWS Sterling, VA

Home | Current Version | Previous Version | Graphics & Text | Print | Product List | Glossary On
Versions: 1 2 3 4 5 6 7 8 9 10 11 12 13 14 15 16 17 18 19 20 21 22 23 24 25 26 27 28 29 30 31 32 33 34 35 36 37 38 39 40 41 42 43 44 45 46 47 48 49 50
000
ASUS41 KLWX 270211
RWRLWX

REGIONAL WEATHER ROUNDUP
NATIONAL WEATHER SERVICE BALTIMORE MD/WASHINGTON DC
1000 PM EDT SUN MAR 26 2017

Note: "FAIR" indicates few or no clouds below 12,000 feet
with no significant weather and/or obstructions to visibility.
 TC=TEMPERATURE CELSIUS

 * =Non NWS site. Station does not report precipitation (e.g. rain,
    snow, etc.), thunder, or fog.

DCZ001-MDZ009-015-VAZ040>042-051-053>054-270300-
WASHINGTON METRO

CITY           SKY/WX    TMP DP  RH WIND       PRES   REMARKS
WASHINGTON NAT DRIZZLE   48  47  96 E9        30.25S FOG
DULLES         FOG       46  45  96 E8        30.23F VSB 1
ANDREWS AFB    CLOUDY    46  45  96 E9        30.23S FOG
FT BELVOIR     CLOUDY    47  45  93 VRB3      30.24S
QUANTICO       CLOUDY    49  49 100 E7        30.25R FOG
COLLEGE PARK*  CLOUDY    45  43  93 E5        30.25S
LEESBURG*      LGT RAIN  46  46 100 E7        30.24F
MANASSAS*      LGT RAIN  48  47  96 E7        30.24S FOG

$$

MDZ006>007-011-014-270300-
BALTIMORE METRO

CITY           SKY/WX    TMP DP  RH WIND       PRES   REMARKS
BWI AIRPORT    DRIZZLE   45  45 100 E10       30.26S FOG
MD SCIENCE CTR   N/A     46  43  89 MISG      30.27S
MARTIN STATE   CLOUDY    46  46 100 E7        30.29R FOG
ANNAPOLIS      CLOUDY    46  45  96 E5        30.26S FOG
FORT MEADE*    CLOUDY    45  43  93 E9        30.28S

$$

MDZ012-015-019>023-270300-
MARYLAND EASTERN SHORE

CITY           SKY/WX    TMP DP  RH WIND       PRES   REMARKS
OCEAN CITY     FOG       46  45  96 NE7       30.26F VSB 1/2
SALISBURY      FOG       46  46 100 E7        30.25S VSB 1/2
BAY BRIDGE AP* CLOUDY    45  45 100 E5        30.27R FOG
CAMBRIDGE*     CLOUDY    46  45  93 E10       30.23F FOG
EASTON*        CLOUDY    46  45  93 E7        30.29S FOG

$$

MDZ017>025-270300-
SOUTHERN MARYLAND

CITY           SKY/WX    TMP DP  RH WIND       PRES   REMARKS
PATUXENT RIVER FOG       47  47 100 E12       30.22F VSB 3/4
ST INIGOES     CLOUDY    48  48 100 E8        30.21F FOG
LEONARDTOWN*   CLOUDY    46  45  93 NE5       30.24S VSB 1/2

$$

MDZ003>005-270300-
NORTH CENTRAL MARYLAND

CITY           SKY/WX    TMP DP  RH WIND       PRES   REMARKS
FREDERICK*     NOT AVBL
HAGERSTOWN APT CLOUDY    46  45  96 E3        30.21F FOG
WESTMINSTER*   CLOUDY    45  45 100 SE6       30.23F FOG

$$

MDZ501>502-270300-
WESTERN MARYLAND

CITY           SKY/WX    TMP DP  RH WIND       PRES   REMARKS
OAKLAND*       FOG       41  41 100 SE13      30.11S VSB 3/4
CUMBERLAND*    CLOUDY    46  46 100 CALM      30.22S

$$

VAZ025>031-270300-
SHENANDOAH VALLEY

CITY           SKY/WX    TMP DP  RH WIND       PRES   REMARKS
WINCHESTER*    CLOUDY    45  45 100 E6        30.19F FOG
FRONT ROYAL*   CLOUDY    46  46 100 CALM      30.17F
LURAY*         CLOUDY    52  52 100 N3        30.17S
NEW MARKET*    CLOUDY    48  46  93 N3        30.16F
STAUNTON*      CLOUDY    52  49  89 SE5       30.17F
WAYNESBORO*    CLOUDY    49  49 100 SE7       30.17S

$$

WVZ021-048>050-054>055-270300-
EASTERN WEST VIRGINIA PANHANDLE

CITY           SKY/WX    TMP DP  RH WIND       PRES   REMARKS
MARTINSBURG    CLOUDY    46  44  93 SE5       30.20F FOG
PETERSBURG*    RAIN      50  47  90 NW6       30.15S

$$

VAZ036>039-050-270300-
CENTRAL FOOTHILLS

CITY           SKY/WX    TMP DP  RH WIND       PRES   REMARKS
CHARLOTTESVILL CLOUDY    51  49  92 NE7       30.20S FOG
CULPEPER*      DRIZZLE   49  49  99 N3        30.23S
ORANGE*        RAIN      48  46  93 N3        30.24R
GORDONSVILLE*  CLOUDY    49  49  99 N3        30.21R FOG
WARRENTON*     DRIZZLE   49  46  89 CALM      30.22F

$$

VAZ055>057-270300-
NORTH AND CENTRAL PIEDMONT

CITY           SKY/WX    TMP DP  RH WIND       PRES   REMARKS
FREDERICKSBRG* CLOUDY    50  50  99 N5        30.22R
STAFFORD*      CLOUDY    47  47 100 NE7       30.27R FOG

$$

NCZ024-NYZ072-PAZ021-071-VAZ022-071-270300-
OTHER REGIONAL OBSERVATIONS

CITY           SKY/WX    TMP DP  RH WIND       PRES   REMARKS
NEW YORK CITY  CLOUDY    39  38  96 CALM      30.37F FOG
PHILADELPHIA   CLOUDY    41  39  93 E13       30.31S FOG
PITTSBURGH     CLOUDY    54  54 100 SE9       30.01S
ROANOKE        CLOUDY    59  57  93 SE7       30.16R
RICHMOND       CLOUDY    55  51  86 NE6       30.19R
RALEIGH        CLOUDY    69  52  54 S13       30.16R

$$

ANZ530>537-270300-
MARINE OBSERVATIONS

STATION/POSITION TIME  TEMP    WIND        PRES
                       AIR SEA DIR/SP/G
                 (UTC) (F)     (DEG/KT/KT) (MB)
THOMAS PT LIGHT  0200   44 45   80/  8/  9   N/A
BALT KEY BRIDGE  0148   44      80/  8/  9 1025.2R
COVE POINT       0148   45     120/  8/ 10 1024.3F
LEWISETTA        0142   48 51  110/ 11/ 12 1023.0F
SOLOMONS ISLAND  0148   47 47   80/ 10/ 12   N/A
PINEY POINT      0148          120/ 10/ 11   N/A

$$




USA.gov is the U.S. government's official web portal to all federal, state and local government web resources and services.